DW2715 Weather Reports


Display with metric or nautical units.
time (UTC)temp
F
wind
direction
speed
MPH
gust
MPH
rain 1hr
in
rain 24hr
in
rain mn
in
humidity
%
barometer
mb
20260504234721 58 96 2.0 4.0 0.00 0.00 0.00 74 1015.2
20260504234221 59 84 1.0 4.0 0.00 0.00 0.00 73 1015.3
20260504233720 59 82 0.0 4.0 0.00 0.00 0.00 73 1015.3
20260504233221 59 142 0.0 0.0 0.00 0.00 0.00 72 1015.4
20260504231721 60 92 0.0 0.0 0.00 0.00 0.00 71 1015.5
20260504231221 60 92 0.0 0.0 0.00 0.00 0.00 71 1015.5
20260504230721 60 94 0.0 0.0 0.00 0.00 0.00 70 1015.6
20260504225721 60 61 0.0 0.0 0.00 0.00 0.00 70 1015.7
20260504225221 60 5 0.0 0.0 0.00 0.00 0.00 69 1015.8
20260504224721 60 5 0.0 0.0 0.00 0.00 0.00 69 1015.7
20260504224221 60 5 0.0 0.0 0.00 0.00 0.00 69 1015.7
20260504223721 60 5 0.0 0.0 0.00 0.00 0.00 70 1015.8
20260504223221 60 5 0.0 0.0 0.00 0.00 0.00 70 1015.8
20260504222724 60 5 0.0 0.0 0.00 0.00 0.00 71 1015.8
20260504222220 60 5 0.0 0.0 0.00 0.00 0.00 71 1015.8
20260504221721 60 5 0.0 0.0 0.00 0.00 0.00 71 1015.8
20260504221219 60 5 0.0 0.0 0.00 0.00 0.00 71 1015.8
20260504220717 60 5 0.0 0.0 0.00 0.00 0.00 71 1015.8
20260504220214 60 5 0.0 0.0 0.00 0.00 0.00 71 1015.8
20260504215714 60 9 0.0 0.0 0.00 0.00 0.00 71 1015.8
20260504215214 60 15 0.0 0.0 0.00 0.00 0.00 71 1015.8
20260504214713 60 22 0.0 0.0 0.00 0.00 0.00 70 1015.8
20260504214212 61 192 0.0 0.0 0.00 0.00 0.00 69 1015.8
20260504213712 61 192 0.0 0.0 0.00 0.00 0.00 69 1015.8
20260504212713 61 194 0.0 0.0 0.00 0.00 0.00 69 1015.8
20260504211708 61 195 0.0 0.0 0.00 0.00 0.00 68 1015.9
20260504210709 61 213 0.0 0.0 0.00 0.00 0.00 67 1015.8
20260504210208 62 213 0.0 0.0 0.00 0.00 0.00 67 1015.9
20260504205709 62 213 0.0 0.0 0.00 0.00 0.00 66 1015.9
20260504205208 62 213 0.0 0.0 0.00 0.00 0.00 66 1015.8
20260504204709 62 213 0.0 3.0 0.00 0.00 0.00 66 1015.8
20260504204210 62 199 0.0 3.0 0.00 0.00 0.00 65 1015.8
20260504203708 62 199 1.0 2.0 0.00 0.00 0.00 65 1015.8
20260504203208 63 199 1.0 4.0 0.00 0.00 0.00 65 1015.8
20260504202708 63 199 1.0 4.0 0.00 0.00 0.00 64 1015.8
20260504202208 63 192 1.0 3.0 0.00 0.00 0.00 64 1015.8
20260504201709 63 192 0.0 2.0 0.00 0.00 0.00 63 1015.8
20260504201206 63 192 0.0 0.0 0.00 0.00 0.00 63 1015.7
20260504200705 64 190 0.0 0.0 0.00 0.00 0.00 62 1015.7
20260504200204 64 190 0.0 0.0 0.00 0.00 0.00 61 1015.7
20260504195703 64 195 0.0 0.0 0.00 0.00 0.00 61 1015.7
20260504195204 64 195 0.0 0.0 0.00 0.00 0.00 61 1015.7
20260504193704 65 196 0.0 0.0 0.00 0.00 0.00 59 1015.6
20260504192701 65 195 2.0 6.0 0.00 0.00 0.00 58 1015.7
20260504192155 65 186 2.0 8.0 0.00 0.00 0.00 57 1015.6
20260504191651 66 188 1.0 6.0 0.00 0.00 0.00 56 1015.6
20260504191143 66 179 0.0 3.0 0.00 0.00 0.00 54 1015.5
20260504190644 66 194 0.0 3.0 0.00 0.00 0.00 53 1015.5
20260504190141 67 166 0.0 0.0 0.00 0.00 0.00 52 1015.5
20260504184640 68 167 0.0 0.0 0.00 0.00 0.00 50 1015.4
20260504184138 68 183 0.0 0.0 0.00 0.00 0.00 49 1015.3
20260504183636 68 192 2.0 8.0 0.00 0.00 0.00 49 1015.3
20260504183135 69 155 3.0 12.0 0.00 0.00 0.00 49 1015.3
20260504182634 69 221 2.0 12.0 0.00 0.00 0.00 48 1015.3
20260504182135 69 186 2.0 10.0 0.00 0.00 0.00 48 1015.2
20260504181633 70 161 2.0 8.0 0.00 0.00 0.00 48 1015.3
20260504180631 71 202 3.0 13.0 0.00 0.00 0.00 46 1015.3
20260504180130 71 186 4.0 11.0 0.00 0.00 0.00 45 1015.2
20260504175631 72 201 3.0 11.0 0.00 0.00 0.00 44 1015.2
20260504175135 72 189 2.0 10.0 0.00 0.00 0.00 45 1015.1
20260504174630 73 184 3.0 14.0 0.00 0.00 0.00 44 1015.0
20260504174130 73 200 4.0 14.0 0.00 0.00 0.00 44 1015.0
20260504173630 73 186 4.0 11.0 0.00 0.00 0.00 44 1015.0
20260504173124 74 167 3.0 11.0 0.00 0.00 0.00 44 1015.0
20260504172617 74 144 3.0 10.0 0.00 0.00 0.00 43 1014.9
20260504172111 75 204 3.0 10.0 0.00 0.00 0.00 43 1014.9
20260504171103 75 177 0.0 3.0 0.00 0.00 0.00 36 1014.8
20260504170604 76 173 0.0 3.0 0.00 0.00 0.00 36 1014.8
20260504151045 76 105 3.0 11.0 0.00 0.00 0.00 47 1015.1
20260504150545 76 136 3.0 12.0 0.00 0.00 0.00 48 1015.2
20260504141037 78 132 3.0 11.0 0.00 0.00 0.00 46 1015.5
20260504140537 77 169 3.0 11.0 0.00 0.00 0.00 47 1015.6
20260504130533 80 192 1.0 9.0 0.00 0.00 0.00 46 1016.1
20260504110516 75 82 0.0 0.0 0.00 0.00 0.00 48 1017.0
20260504100129 74 153 1.0 8.0 0.00 0.00 0.00 51 1017.6
20260504081602 67 5 0.0 3.0 0.00 0.00 0.00 63 1017.9
20260504081101 67 323 1.0 4.0 0.00 0.00 0.00 64 1017.9
20260504080601 67 27 1.0 5.0 0.00 0.00 0.00 65 1017.9
20260504050546 56 29 3.0 5.0 0.00 0.00 0.00 76 1017.0
20260504045546 56 28 3.0 5.0 0.00 0.00 0.00 77 1016.9
20260504045044 56 29 3.0 6.0 0.00 0.00 0.00 77 1016.9
20260504044542 56 5 4.0 7.0 0.00 0.00 0.00 77 1016.8
20260504044043 56 30 3.0 7.0 0.00 0.00 0.00 77 1016.8
20260504043542 56 5 3.0 6.0 0.00 0.00 0.00 78 1016.8
20260504042040 56 26 3.0 4.0 0.00 0.00 0.00 78 1016.6
20260504041538 56 18 3.0 5.0 0.00 0.00 0.00 78 1016.5
20260504041037 56 37 3.0 5.0 0.00 0.00 0.00 78 1016.5
20260504040537 56 34 2.0 5.0 0.00 0.00 0.00 77 1016.5
20260504040036 56 17 2.0 4.0 0.00 0.00 0.00 77 1016.5
20260504035537 56 24 2.0 4.0 0.00 0.00 0.00 77 1016.5
20260504034534 57 23 0.0 3.0 0.00 0.00 0.00 77 1016.6
20260504033535 57 22 1.0 4.0 0.00 0.00 0.00 76 1016.6
20260504033034 57 22 2.0 4.0 0.00 0.00 0.00 76 1016.6
20260504032536 57 22 2.0 4.0 0.00 0.00 0.00 76 1016.5
20260504032031 57 5 2.0 3.0 0.00 0.00 0.00 77 1016.5
20260504031530 57 5 1.0 2.0 0.00 0.00 0.00 76 1016.5
20260504031030 57 5 1.0 2.0 0.00 0.00 0.00 76 1016.6
20260504030529 57 5 1.0 3.0 0.00 0.00 0.00 76 1016.6
20260504030029 58 5 1.0 3.0 0.00 0.00 0.00 76 1016.6
20260504025529 58 5 2.0 3.0 0.00 0.00 0.00 76 1016.6
20260504025030 58 5 1.0 3.0 0.00 0.00 0.00 76 1016.6
20260504024529 58 5 0.0 3.0 0.00 0.00 0.00 76 1016.7
20260504024030 58 5 0.0 0.0 0.00 0.00 0.00 76 1016.7
20260504023529 58 102 0.0 0.0 0.00 0.00 0.00 77 1016.8
20260504023029 58 102 0.0 0.0 0.00 0.00 0.00 77 1016.8
20260504022530 58 102 0.0 0.0 0.00 0.00 0.00 77 1016.8
20260504021529 58 102 0.0 0.0 0.00 0.00 0.00 77 1016.7
20260504020529 58 102 0.0 0.0 0.00 0.00 0.00 76 1016.6
20260504020032 58 102 0.0 0.0 0.00 0.00 0.00 76 1016.7
20260504015530 58 102 0.0 0.0 0.00 0.00 0.00 76 1016.6
20260504015029 58 102 0.0 0.0 0.00 0.00 0.00 76 1016.7
20260504014529 58 102 0.0 2.0 0.00 0.00 0.00 75 1016.7
20260504014030 58 102 1.0 3.0 0.00 0.00 0.00 75 1016.7
20260504013029 58 104 0.0 1.0 0.00 0.00 0.00 76 1016.7
20260504012530 58 104 0.0 0.0 0.00 0.00 0.00 76 1016.7
20260504012030 58 104 0.0 0.0 0.00 0.00 0.00 75 1016.7
20260504011531 58 104 0.0 0.0 0.00 0.00 0.00 75 1016.7
20260504011029 58 104 0.0 0.0 0.00 0.00 0.00 76 1016.7
20260504010529 58 104 0.0 1.0 0.00 0.00 0.00 75 1016.7
20260504010029 58 104 0.0 2.0 0.00 0.00 0.00 75 1016.7
20260504005530 58 104 0.0 2.0 0.00 0.00 0.00 75 1016.7
20260504005030 58 104 0.0 0.0 0.00 0.00 0.00 76 1016.8
20260504004530 58 104 0.0 0.0 0.00 0.00 0.00 76 1016.8
20260504003020 59 104 0.0 2.0 0.00 0.00 0.00 76 1016.8
20260504002514 59 104 0.0 2.0 0.00 0.00 0.00 76 1016.9
20260504002009 59 104 0.0 2.0 0.00 0.00 0.00 76 1016.9
20260504001504 59 104 1.0 3.0 0.00 0.00 0.00 76 1016.9
20260504000956 59 104 1.0 3.0 0.00 0.00 0.00 76 1017.0
20260503235944 59 98 0.0 0.0 0.00 0.00 0.00 77 1017.0
20260503235442 59 98 0.0 0.0 0.00 0.00 0.00 77 1017.1